Date String (YYYY-MM-DD hh:mm:ss) UTC,Instrument flags,Ambient pressure (hPa),Sample flow (lpm),Bypass flow (lpm),Sample temperature (°C),Ambient temperature (°C),ASC tube jacket temperature (°C),LED temperature (°C),Box temperature (°C),Sample RH (%),Span deviation,Mass concentration (μg/m³),Mass concentration (μg/m³),Mass concentration (μg/m³)
DateTimeUTC,F1_M11,P_M11,Q1_M11,Q2_M11,T1_M11,T2_M11,T3_M11,T4_M11,T5_M11,U1_M11,ZSPAN_M11,X0_M11,X2_M11,X1_M11
2022-07-07 10:00:00,,0829.0,5.01,0.00,31.6,29.0,00.0,40.0,32.5,35.0,-000.6,0018.36,0009.92,0008.62
2022-07-07 10:01:00,,0829.0,5.01,0.00,31.8,29.0,00.0,40.0,32.7,34.7,-000.7,0018.61,0010.03,0008.69
2022-07-07 10:02:00,,0829.0,5.00,0.00,31.9,29.0,00.0,40.0,32.7,34.5,-000.8,0018.73,0010.05,0008.72
2022-07-07 10:03:00,,0828.9,5.00,0.00,31.9,29.1,00.0,40.1,32.7,34.5,-000.9,0018.93,0010.10,0008.76
2022-07-07 10:04:00,,0828.5,4.99,0.00,31.9,29.1,00.0,40.1,32.7,34.5,-001.0,0020.09,0010.13,0008.77
2022-07-07 10:05:00,,0828.5,4.99,0.00,31.9,29.1,00.0,40.1,32.7,34.6,-001.2,0019.75,0010.21,0008.82
2022-07-07 10:06:00,,0828.5,5.00,0.00,31.9,29.2,00.0,40.1,32.6,34.7,-001.4,0019.81,0010.31,0008.89
2022-07-07 10:07:00,,0828.5,5.00,0.00,31.8,29.2,00.0,40.1,32.6,34.7,-001.3,0019.25,0010.41,0008.99
2022-07-07 10:08:00,,0828.5,5.00,0.00,31.8,29.2,00.0,40.2,32.7,34.8,-001.4,0019.37,0010.56,0009.10
2022-07-07 10:09:00,,0828.5,5.00,0.00,31.8,29.2,00.0,40.2,32.7,34.9,-001.5,0019.31,0010.68,0009.20
2022-07-07 10:10:00,,0828.5,4.99,0.00,31.7,29.3,00.0,40.2,32.7,34.9,-001.5,0019.49,0010.76,0009.30
2022-07-07 10:11:00,,0828.4,5.00,0.00,31.7,29.3,00.0,40.2,32.7,34.9,-001.3,0020.40,0010.88,0009.38
2022-07-07 10:12:00,,0828.4,4.99,0.00,31.7,29.3,00.0,40.2,32.7,34.9,-001.1,0021.14,0010.96,0009.40
2022-07-07 10:13:00,,0828.3,5.00,0.00,31.7,29.3,00.0,40.2,32.7,35.0,-000.9,0021.37,0011.06,0009.44
2022-07-07 10:14:00,,0828.5,4.99,0.00,31.7,29.3,00.0,40.2,32.8,35.0,-000.9,0021.73,0011.07,0009.43
2022-07-07 10:15:00,,0828.5,5.00,0.00,31.9,29.4,00.0,40.2,32.9,34.4,-001.0,0020.67,0011.00,0009.38
2022-07-07 10:16:00,,0828.3,5.00,0.00,32.0,29.4,00.0,40.2,32.9,34.3,-001.1,0020.96,0010.92,0009.31
2022-07-07 10:17:00,,0828.3,5.01,0.00,32.0,29.4,00.0,40.2,32.9,34.2,-001.0,0021.45,0010.81,0009.20
2022-07-07 10:18:00,,0828.3,4.99,0.00,32.0,29.4,00.0,40.2,32.9,34.2,-001.5,0021.78,0010.76,0009.10
2022-07-07 10:19:00,,0828.3,5.00,0.00,32.0,29.4,00.0,40.2,32.9,34.0,-001.7,0021.57,0010.63,0008.99
2022-07-07 10:20:00,,0828.4,5.00,0.00,31.9,29.4,00.0,40.3,32.9,34.0,-001.1,0021.76,0010.46,0008.87
2022-07-07 10:21:00,,0828.4,5.01,0.00,31.9,29.4,00.0,40.3,32.9,34.2,-000.9,0021.58,0010.33,0008.76
2022-07-07 10:22:00,,0828.3,5.00,0.00,31.9,29.5,00.0,40.3,32.8,34.0,-001.1,0020.39,0010.20,0008.65
2022-07-07 10:23:00,,0828.3,4.99,0.00,31.8,29.5,00.0,40.3,32.9,34.0,-001.2,0019.57,0010.02,0008.56
2022-07-07 10:24:00,,0828.4,5.00,0.00,31.8,29.5,00.0,40.3,32.9,34.0,-001.3,0019.12,0009.85,0008.50
2022-07-07 10:25:00,,0828.3,5.00,0.00,31.8,29.2,00.0,40.3,32.8,34.0,-001.2,0019.14,0009.76,0008.46
2022-07-07 10:26:00,,0828.3,5.01,0.00,31.7,28.4,00.0,40.2,32.7,34.1,-001.2,0019.31,0009.75,0008.47
2022-07-07 10:27:00,,0828.3,4.99,0.00,31.7,27.9,00.0,40.1,32.6,34.1,-001.1,0018.77,0009.76,0008.46
2022-07-07 10:28:00,,0828.3,4.99,0.00,31.5,27.8,00.0,40.1,32.4,34.2,-000.9,0018.58,0009.78,0008.45
2022-07-07 10:29:00,,0828.2,5.01,0.00,31.4,27.8,00.0,40.1,32.3,34.4,-000.7,0018.02,0009.63,0008.40
2022-07-07 10:30:00,,0828.2,5.00,0.00,31.3,27.9,00.0,40.0,32.3,34.3,-000.6,0017.89,0009.49,0008.32
2022-07-07 10:31:00,,0828.2,5.00,0.00,31.2,28.1,00.0,40.0,32.2,34.4,-000.6,0017.17,0009.36,0008.21
2022-07-07 10:32:00,,0828.2,5.00,0.00,31.1,28.2,00.0,39.9,32.2,34.4,-000.8,0016.27,0009.15,0008.05
2022-07-07 10:33:00,,0828.2,5.01,0.00,31.1,28.3,00.0,39.9,32.3,34.3,-000.6,0015.81,0008.86,0007.83
2022-07-07 10:34:00,,0828.2,4.99,0.00,31.0,28.4,00.0,39.9,32.3,34.5,-000.3,0015.55,0008.67,0007.64
2022-07-07 10:35:00,,0828.2,5.01,0.00,31.0,28.5,00.0,39.8,32.3,34.5,-000.3,0014.97,0008.46,0007.44
2022-07-07 10:36:00,,0828.1,4.99,0.00,31.0,28.6,00.0,39.8,32.3,34.3,-000.2,0014.49,0008.22,0007.21
2022-07-07 10:37:00,,0828.1,5.00,0.00,30.9,28.7,00.0,39.8,32.3,33.8,-000.3,0013.37,0007.82,0006.86
2022-07-07 10:38:00,,0828.1,5.00,0.00,30.9,28.7,00.0,39.7,32.3,33.9,-000.0,0012.62,0007.46,0006.54
2022-07-07 10:39:00,,0828.1,5.00,0.00,30.9,28.8,00.0,39.7,32.3,34.0,-000.1,0011.70,0007.03,0006.23
2022-07-07 10:40:00,,0828.1,5.00,0.00,30.9,28.9,00.0,39.7,32.3,34.0,-000.1,0011.12,0006.70,0005.94
2022-07-07 10:41:00,,0828.2,4.99,0.00,30.9,28.9,00.0,39.7,32.3,34.2,0000.4,0011.19,0006.44,0005.71
2022-07-07 10:42:00,,0828.1,5.00,0.00,30.9,28.9,00.0,39.7,32.3,34.1,-000.1,0010.98,0006.22,0005.49
2022-07-07 10:43:00,,0828.1,5.01,0.00,30.8,29.0,00.0,39.6,32.3,33.6,0000.0,0010.68,0005.97,0005.26
2022-07-07 10:44:00,,0828.1,5.00,0.00,30.8,29.0,00.0,39.6,32.3,32.7,0000.0,0010.54,0005.77,0005.07
2022-07-07 10:45:00,,0828.1,5.00,0.00,30.8,29.0,00.0,39.6,32.3,32.4,0000.0,0010.38,0005.51,0004.85
2022-07-07 10:46:00,,0828.1,5.00,0.00,30.8,29.1,00.0,39.6,32.4,33.6,0000.0,0010.10,0005.38,0004.72
2022-07-07 10:47:00,,0828.2,4.99,0.00,30.8,29.1,00.0,39.6,32.4,33.8,0000.0,0009.69,0005.27,0004.65
2022-07-07 10:48:00,,0828.1,5.01,0.00,30.8,29.1,00.0,39.6,32.4,33.7,0000.0,0009.74,0005.31,0004.68
2022-07-07 10:49:00,,0828.1,5.00,0.00,30.8,29.1,00.0,39.6,32.4,33.7,0000.0,0009.85,0005.34,0004.71
2022-07-07 10:50:00,,0828.2,5.00,0.00,30.8,29.2,00.0,39.6,32.4,33.2,0000.0,0009.79,0005.30,0004.68
2022-07-07 10:51:00,,0828.2,5.00,0.00,30.8,29.2,00.0,39.6,32.4,33.0,0000.0,0009.77,0005.27,0004.64
2022-07-07 10:52:00,,0828.2,5.00,0.00,30.8,29.2,00.0,39.6,32.4,32.8,0000.0,0009.10,0005.17,0004.57
2022-07-07 10:53:00,,0828.2,4.99,0.00,30.8,29.2,00.0,39.6,32.4,32.9,0000.0,0008.94,0005.05,0004.49
2022-07-07 10:54:00,,0828.2,4.99,0.00,30.8,29.2,00.0,39.6,32.4,32.9,0000.0,0009.17,0005.06,0004.50
2022-07-07 10:55:00,,0828.2,5.00,0.00,30.8,29.3,00.0,39.6,32.4,32.9,0000.0,0009.33,0005.10,0004.54
2022-07-07 10:56:00,,0828.2,4.99,0.00,30.8,29.3,00.0,39.6,32.4,33.0,0000.0,0009.29,0005.20,0004.60
2022-07-07 10:57:00,,0828.2,5.00,0.00,30.8,29.3,00.0,39.6,32.4,33.0,0000.0,0009.35,0005.21,0004.61
2022-07-07 10:58:00,,0828.2,4.99,0.00,30.8,29.3,00.0,39.6,32.5,33.0,0000.0,0009.21,0005.16,0004.56
2022-07-07 10:59:00,,0828.1,4.99,0.00,30.8,29.3,00.0,39.6,32.5,33.0,0000.0,0009.20,0005.14,0004.52
